When you browse on this site, cookies collect data to enhance your experience and personalize the content and advertising you see.
Visit our Privacy Policy to learn more. By continuing to use the site, you agree to this use of cookies and data.
  • en France
  • Liste des pays
  • À 7 jours
  • Température de l'eau
  • Carte satellitaire
  • Carte météo
  • Widgets météo
  • user-avatar
    Se connecter

    Météo par heure à Barra

    Ce jour, 17 Décembre, Lundi

    Heure Température Précipitation Vent Pression Humidité
    00:00 +26°C° 0 mm 2 m/s 743 mmHg 83%
    01:00 +25°C° 0 mm 2 m/s 743 mmHg 84%
    02:00 +25°C° 0 mm 2 m/s 742 mmHg 84%
    03:00 +25°C° 0 mm 2 m/s 742 mmHg 83%
    04:00 +24°C° 0 mm 2 m/s 742 mmHg 82%
    05:00 +25°C° 0 mm 2 m/s 742 mmHg 80%
    06:00 +25°C° 0 mm 2 m/s 743 mmHg 77%
    07:00 +26°C° 0 mm 2 m/s 743 mmHg 75%
    08:00 +29°C° 0 mm 2 m/s 743 mmHg 65%
    09:00 +32°C° 0 mm 2 m/s 743 mmHg 55%
    10:00 +35°C° 0 mm 1 m/s 743 mmHg 45%
    11:00 +37°C° 0 mm 2 m/s 743 mmHg 41%
    12:00 +38°C° 0 mm 2 m/s 742 mmHg 37%
    13:00 +39°C° 0 mm 2 m/s 742 mmHg 34%
    14:00 +38°C° 0 mm 2 m/s 742 mmHg 35%
    15:00 +38°C° 0 mm 2 m/s 741 mmHg 37%
    16:00 +38°C° 0 mm 3 m/s 741 mmHg 39%
    17:00 +35°C° 0 mm 2 m/s 741 mmHg 49%
    18:00 +32°C° 0 mm 2 m/s 741 mmHg 58%
    19:00 +30°C° 0 mm 2 m/s 742 mmHg 67%
    20:00 +29°C° 0 mm 2 m/s 742 mmHg 68%
    21:00 +29°C° 0 mm 2 m/s 743 mmHg 69%
    22:00 +28°C° 0 mm 2 m/s 743 mmHg 70%
    23:00 +28°C° 0 mm 2 m/s 743 mmHg 70%

    Demain, 18 Décembre, Mardi

    Heure Température Précipitation Vent Pression Humidité
    00:00 +28°C° 0 mm 2 m/s 743 mmHg 69%
    01:00 +28°C° 0 mm 1 m/s 743 mmHg 69%
    02:00 +27°C° 0 mm 1 m/s 743 mmHg 70%
    03:00 +27°C° 0 mm 1 m/s 743 mmHg 70%
    04:00 +27°C° 0 mm 1 m/s 743 mmHg 71%
    05:00 +27°C° 0 mm 2 m/s 743 mmHg 71%
    06:00 +28°C° 0 mm 2 m/s 744 mmHg 70%
    07:00 +29°C° 0 mm 2 m/s 744 mmHg 70%
    08:00 +31°C° 0 mm 3 m/s 744 mmHg 62%
    09:00 +34°C° 0 mm 3 m/s 744 mmHg 54%
    10:00 +37°C° 0 mm 3 m/s 745 mmHg 46%
    11:00 +37°C° 0 mm 3 m/s 744 mmHg 45%
    12:00 +38°C° 0 mm 3 m/s 744 mmHg 44%
    13:00 +38°C° 0 mm 4 m/s 744 mmHg 42%
    14:00 +38°C° 0 mm 3 m/s 743 mmHg 46%
    15:00 +37°C° 0 mm 3 m/s 743 mmHg 50%
    16:00 +36°C° 0 mm 3 m/s 743 mmHg 53%
    17:00 +34°C° 0.1 mm 3 m/s 743 mmHg 63%
    18:00 +31°C° 0.1 mm 2 m/s 743 mmHg 73%
    19:00 +29°C° 0.1 mm 2 m/s 744 mmHg 82%
    20:00 +29°C° 0.2 mm 2 m/s 744 mmHg 85%
    21:00 +28°C° 0.2 mm 1 m/s 745 mmHg 87%
    22:00 +28°C° 0.2 mm 1 m/s 746 mmHg 90%
    23:00 +27°C° 0 mm 1 m/s 745 mmHg 91%

    Après-demain, 19 Décembre, Mercredi

    Heure Température Précipitation Vent Pression Humidité
    00:00 +27°C° 0 mm 1 m/s 745 mmHg 92%
    01:00 +25°C° 0 mm 0 m/s 745 mmHg 93%
    02:00 +27°C° 0 mm 1 m/s 745 mmHg 93%
    03:00 +27°C° 0 mm 1 m/s 745 mmHg 94%
    04:00 +26°C° 0 mm 1 m/s 745 mmHg 94%
    05:00 +27°C° 0 mm 1 m/s 745 mmHg 92%
    06:00 +28°C° 0 mm 1 m/s 745 mmHg 89%
    07:00 +28°C° 0 mm 2 m/s 746 mmHg 86%
    08:00 +30°C° 0 mm 2 m/s 746 mmHg 78%
    09:00 +32°C° 0 mm 2 m/s 746 mmHg 69%
    10:00 +35°C° 0 mm 2 m/s 746 mmHg 60%
    11:00 +36°C° 0 mm 2 m/s 746 mmHg 58%
    12:00 +36°C° 0 mm 3 m/s 745 mmHg 56%
    13:00 +37°C° 0 mm 3 m/s 745 mmHg 53%
    14:00 +36°C° 0.1 mm 3 m/s 744 mmHg 55%
    15:00 +36°C° 0.1 mm 3 m/s 744 mmHg 57%
    16:00 +35°C° 0.1 mm 3 m/s 743 mmHg 58%
    17:00 +33°C° 1.1 mm 3 m/s 743 mmHg 68%
    18:00 +31°C° 1.1 mm 3 m/s 744 mmHg 77%
    19:00 +29°C° 1.1 mm 3 m/s 744 mmHg 86%
    20:00 +28°C° 0.4 mm 3 m/s 745 mmHg 88%
    21:00 +28°C° 0.4 mm 3 m/s 745 mmHg 90%
    22:00 +27°C° 0.4 mm 3 m/s 746 mmHg 91%
    23:00 +27°C° 0.1 mm 3 m/s 746 mmHg 92%

    20 Décembre, Jeudi

    Heure Température Précipitation Vent Pression Humidité
    00:00 +27°C° 0.1 mm 4 m/s 745 mmHg 92%
    01:00 +27°C° 0.1 mm 4 m/s 745 mmHg 93%
    02:00 +27°C° 0.4 mm 4 m/s 745 mmHg 93%
    03:00 +27°C° 0.4 mm 4 m/s 745 mmHg 93%
    04:00 +27°C° 0.4 mm 4 m/s 744 mmHg 93%
    05:00 +27°C° 0.4 mm 4 m/s 745 mmHg 91%
    06:00 +27°C° 0.4 mm 4 m/s 745 mmHg 90%
    07:00 +28°C° 0.4 mm 4 m/s 746 mmHg 89%
    08:00 +28°C° 0.6 mm 4 m/s 746 mmHg 85%
    09:00 +29°C° 0.6 mm 4 m/s 746 mmHg 81%
    10:00 +30°C° 0.6 mm 5 m/s 746 mmHg 77%
    11:00 +32°C° 0.7 mm 5 m/s 745 mmHg 76%
    12:00 +32°C° 0.7 mm 5 m/s 745 mmHg 75%
    13:00 +33°C° 0.7 mm 5 m/s 744 mmHg 74%
    14:00 +33°C° 0.8 mm 5 m/s 744 mmHg 74%
    15:00 +33°C° 0.8 mm 5 m/s 743 mmHg 74%
    16:00 +33°C° 0.8 mm 5 m/s 743 mmHg 74%
    17:00 +32°C° 0.3 mm 5 m/s 743 mmHg 78%
    18:00 +29°C° 0.3 mm 4 m/s 744 mmHg 82%
    19:00 +28°C° 0.3 mm 4 m/s 744 mmHg 87%
    20:00 +28°C° 0.3 mm 4 m/s 745 mmHg 88%
    21:00 +28°C° 0.3 mm 4 m/s 745 mmHg 90%
    22:00 +27°C° 0.3 mm 4 m/s 746 mmHg 91%
    23:00 +27°C° 0.4 mm 4 m/s 745 mmHg 92%

    21 Décembre, Vendredi

    Heure Température Précipitation Vent Pression Humidité
    00:00 +27°C° 0.4 mm 4 m/s 745 mmHg 92%
    01:00 +27°C° 0.4 mm 4 m/s 744 mmHg 92%
    02:00 +27°C° 0.2 mm 4 m/s 744 mmHg 92%
    03:00 +27°C° 0.2 mm 3 m/s 744 mmHg 92%
    04:00 +27°C° 0.2 mm 3 m/s 744 mmHg 93%
    05:00 +27°C° 0.4 mm 3 m/s 744 mmHg 92%
    06:00 +28°C° 0.4 mm 3 m/s 744 mmHg 91%
    07:00 +28°C° 0.4 mm 3 m/s 745 mmHg 90%
    08:00 +29°C° 0.2 mm 3 m/s 745 mmHg 86%
    09:00 +30°C° 0.2 mm 3 m/s 745 mmHg 82%
    10:00 +31°C° 0.2 mm 3 m/s 745 mmHg 78%
    11:00 +31°C° 0.3 mm 3 m/s 745 mmHg 75%
    12:00 +33°C° 0.3 mm 4 m/s 744 mmHg 72%
    13:00 +34°C° 0.3 mm 4 m/s 744 mmHg 69%
    14:00 +34°C° 0.2 mm 4 m/s 743 mmHg 71%
    15:00 +33°C° 0.2 mm 3 m/s 743 mmHg 72%
    16:00 +33°C° 0.2 mm 3 m/s 743 mmHg 74%
    17:00 +31°C° 0.1 mm 3 m/s 743 mmHg 79%
    18:00 +30°C° 0.1 mm 3 m/s 744 mmHg 84%
    19:00 +28°C° 0.1 mm 2 m/s 744 mmHg 90%
    20:00 +28°C° 0 mm 2 m/s 745 mmHg 91%
    21:00 +28°C° 0 mm 2 m/s 745 mmHg 93%
    22:00 +28°C° 0 mm 2 m/s 745 mmHg 94%
    23:00 +27°C° 0 mm 2 m/s 745 mmHg 94%

    22 Décembre, Samedi

    Heure Température Précipitation Vent Pression Humidité
    00:00 +27°C° 0 mm 2 m/s 745 mmHg 94%
    01:00 +27°C° 0 mm 2 m/s 744 mmHg 94%
    02:00 +27°C° 0 mm 1 m/s 744 mmHg 95%
    03:00 +27°C° 0 mm 1 m/s 744 mmHg 95%
    04:00 +27°C° 0 mm 1 m/s 744 mmHg 95%
    05:00 +27°C° 0 mm 1 m/s 744 mmHg 93%
    06:00 +28°C° 0 mm 1 m/s 745 mmHg 91%
    07:00 +28°C° 0 mm 1 m/s 745 mmHg 89%
    08:00 +30°C° 0 mm 1 m/s 745 mmHg 78%
    09:00 +34°C° 0 mm 2 m/s 745 mmHg 68%
    10:00 +36°C° 0 mm 2 m/s 745 mmHg 57%
    11:00 +37°C° 0 mm 2 m/s 745 mmHg 54%
    12:00 +37°C° 0 mm 2 m/s 744 mmHg 51%
    13:00 +38°C° 0 mm 3 m/s 744 mmHg 49%
    14:00 +37°C° 0 mm 3 m/s 743 mmHg 53%
    15:00 +36°C° 0 mm 3 m/s 743 mmHg 57%
    16:00 +35°C° 0 mm 3 m/s 742 mmHg 61%
    17:00 +34°C° 0.1 mm 3 m/s 743 mmHg 69%
    18:00 +31°C° 0.1 mm 3 m/s 743 mmHg 77%
    19:00 +29°C° 0.1 mm 3 m/s 743 mmHg 84%
    20:00 +28°C° 0 mm 2 m/s 744 mmHg 87%
    21:00 +28°C° 0 mm 2 m/s 744 mmHg 89%
    22:00 +27°C° 0 mm 2 m/s 744 mmHg 91%
    23:00 +27°C° 0 mm 2 m/s 744 mmHg 92%
    Voir plus